Snowfall_Accumulation
0.0 0.0 0.0 0.0 0.0 0.0 0.0 0.0 0.0 0.0 0.0 0.0 0.0 0.0 0.0 0.0 0.0 0.0 0.0 nan nan nan nan nan nan nan nan nan nan nan nan nan nan nan nan nan nan nan
0.0 0.0 0.0 0.0 0.0 0.0 0.0 0.0 0.0 0.0 0.0 0.0 0.0 0.0 0.0 0.0 0.0 0.0 0.0 nan nan nan nan nan nan nan nan nan nan nan nan nan nan nan nan nan nan nan
0.0 0.0 0.0 0.0 0.0 0.0 0.0 0.0 0.0 0.0 0.0 0.0 0.0 0.0 0.0 0.0 0.0 0.0 0.0 0.0 0.0 nan nan nan nan nan nan nan nan nan nan nan nan nan nan nan nan nan
0.0 0.0 0.0 0.0 0.0 0.0 0.0 0.0 0.0 0.0 0.0 0.0 0.0 0.0 0.0 0.0 0.0 0.0 0.0 0.0 0.0 nan nan nan nan nan nan nan nan nan nan nan nan nan nan nan nan nan
0.0 0.0 0.0 0.0 0.0 0.0 0.0 0.0 0.0 0.0 0.0 0.0 0.0 0.0 0.0 0.0 0.0 0.0 0.0 0.0 0.0 nan nan nan nan nan nan nan nan nan nan nan nan nan nan nan nan nan
0.0 0.0 0.0 0.0 0.0 0.0 0.0 0.0 0.0 0.0 0.0 0.0 0.0 0.0 0.0 0.0 0.0 0.0 0.0 0.0 0.0 0.0 nan nan nan nan nan nan nan nan nan nan nan nan nan nan nan nan
0.0 0.0 0.0 nan nan nan 0.0 0.0 0.0 0.0 0.0 0.0 0.0 0.0 0.0 0.0 0.0 0.0 0.0 0.0 0.2 0.0 0.0 0.0 0.0 0.0 0.0 nan nan nan nan nan nan nan nan nan nan nan
0.0 0.0 0.0 0.0 0.0 nan nan nan nan 0.0 0.0 0.0 0.0 0.0 0.0 0.0 0.0 0.0 0.1 0.5 1.2 0.5 0.4 1.0 0.1 0.2 0.0 0.0 nan nan nan nan nan nan nan nan nan nan
0.1 0.0 0.0 0.0 nan 0.0 nan nan nan nan 0.0 0.0 0.0 0.0 0.0 0.0 0.0 0.1 0.1 0.0 0.0 0.2 0.5 1.8 1.3 1.1 0.4 0.0 nan nan nan nan nan nan nan nan nan nan
0.1 0.0 0.1 0.1 0.1 0.0 0.1 0.1 0.1 0.0 0.0 0.0 0.0 0.0 0.0 0.0 0.0 0.0 0.1 0.1 0.5 0.3 0.3 3.2 2.3 2.8 1.8 0.7 nan nan nan nan nan nan nan nan nan nan
0.1 0.1 0.1 0.2 nan nan 0.5 0.9 0.3 0.2 nan nan nan nan nan nan nan 0.5 1.5 1.4 6.4 2.0 1.4 1.2 2.7 2.7 2.0 2.2 1.7 nan nan nan nan nan nan nan nan nan
0.5 0.3 nan 0.2 nan nan 0.5 0.6 0.7 0.3 0.1 0.2 0.2 0.1 nan nan nan 0.0 0.2 1.3 2.1 2.7 1.6 2.3 0.8 1.5 4.2 3.8 2.2 2.3 1.8 nan nan nan nan nan nan 0.9
1.5 1.4 1.1 nan nan nan nan 0.6 0.4 0.1 0.1 0.4 0.4 0.7 0.5 0.3 0.5 0.4 0.1 0.4 1.1 0.9 0.4 0.2 1.1 1.3 1.2 3.5 3.0 2.4 1.8 3.4 2.5 1.9 nan nan nan 1.0
1.7 1.4 1.0 nan nan nan 1.5 nan nan 0.7 3.8 3.2 2.4 1.7 1.5 1.4 0.6 0.5 0.2 0.5 0.5 0.3 0.1 0.2 2.9 1.0 1.8 3.8 3.4 3.6 3.2 3.2 2.6 3.2 3.2 nan nan nan
2.6 2.0 nan nan nan 1.3 nan nan 0.7 3.5 4.1 4.8 2.9 1.6 1.1 1.0 0.4 0.8 1.1 1.2 1.2 2.1 0.9 0.8 1.3 0.8 1.6 3.0 3.7 5.0 5.6 4.4 3.1 5.3 4.8 2.2 1.9 1.1
0.9 2.5 0.6 2.2 0.8 1.2 2.4 3.7 4.2 4.1 3.6 3.1 2.4 1.4 1.3 1.9 2.1 1.4 2.3 2.9 3.2 3.5 4.0 1.7 0.8 0.7 3.1 2.1 1.4 4.8 4.0 7.0 3.9 4.8 5.7 5.1 2.5 1.8
3.3 7.1 3.9 2.9 3.0 2.7 3.5 3.1 2.9 3.1 4.0 4.0 3.4 2.7 2.4 2.1 2.6 2.7 2.2 2.6 4.0 3.8 2.4 2.1 1.6 1.6 1.2 1.5 5.3 2.2 3.3 3.0 3.0 5.5 5.6 4.3 2.7 2.4
3.2 5.3 11.0 12.1 6.7 3.1 4.7 4.3 3.8 3.1 3.0 3.5 5.1 3.5 3.2 3.7 4.4 5.6 4.5 4.2 5.4 4.0 2.8 1.9 1.8 1.7 1.1 3.2 1.4 2.0 1.6 2.2 2.6 3.9 3.6 4.8 1.9 1.6
5.2 5.5 13.5 15.6 8.7 3.2 3.5 3.3 4.4 3.7 1.8 3.3 4.3 5.1 5.6 4.6 5.4 6.2 6.9 6.0 5.8 3.4 2.2 3.7 3.5 2.9 3.5 7.2 2.9 nan 3.5 2.8 7.5 8.1 4.3 3.6 3.5 1.8
2.5 4.8 8.2 9.2 4.3 2.5 3.1 3.7 4.3 6.4 6.7 4.9 6.9 9.8 11.1 8.2 7.5 5.2 5.1 8.7 6.8 4.2 2.6 1.7 2.5 3.2 3.4 8.5 14.6 12.2 nan 10.4 8.9 9.2 5.1 3.6 1.8 nan
2.6 2.3 5.2 4.2 4.6 3.6 12.1 13.0 16.7 15.3 15.0 18.4 10.1 10.0 21.4 6.2 7.9 6.1 6.9 6.1 5.6 3.7 3.7 3.2 3.2 0.7 3.3 9.7 29.0 14.7 12.7 nan 7.4 6.8 5.2 4.7 1.8 0.9
5.7 3.2 3.6 4.0 6.8 6.5 15.5 23.1 21.5 21.3 15.5 11.3 20.4 28.2 25.7 12.4 10.8 9.3 11.9 10.7 5.4 6.0 4.0 3.1 1.9 1.3 5.8 4.3 5.3 20.1 8.5 8.0 nan nan nan nan 5.7 4.7
12.9 4.6 7.4 9.4 8.4 10.4 5.6 12.8 5.6 27.5 11.5 11.4 11.0 11.3 45.7 14.9 9.0 9.7 11.0 8.3 5.9 6.2 4.7 4.4 2.6 2.0 3.2 2.9 5.3 7.8 7.0 12.5 5.1 4.0 10.8 nan nan nan
Water_Equivalent
0.00 0.00 0.00 0.00 0.00 0.00 0.00 0.00 0.00 0.00 0.00 0.00 0.00 0.00 0.00 0.00 0.00 0.00 0.00 nan nan nan nan nan nan nan nan nan nan nan nan nan nan nan nan nan nan nan
0.00 0.00 0.00 0.00 0.00 0.00 0.00 0.00 0.00 0.00 0.00 0.00 0.00 0.00 0.00 0.00 0.00 0.00 0.00 nan nan nan nan nan nan nan nan nan nan nan nan nan nan nan nan nan nan nan
0.00 0.00 0.00 0.00 0.00 0.00 0.00 0.00 0.00 0.00 0.00 0.00 0.00 0.00 0.00 0.00 0.00 0.00 0.00 0.00 0.00 nan nan nan nan nan nan nan nan nan nan nan nan nan nan nan nan nan
0.00 0.00 0.00 0.00 0.00 0.00 0.00 0.00 0.00 0.00 0.00 0.00 0.00 0.00 0.00 0.00 0.00 0.00 0.00 0.00 0.00 nan nan nan nan nan nan nan nan nan nan nan nan nan nan nan nan nan
0.00 0.00 0.00 0.00 0.00 0.00 0.00 0.00 0.00 0.00 0.00 0.00 0.00 0.00 0.00 0.00 0.00 0.00 0.00 0.00 0.00 nan nan nan nan nan nan nan nan nan nan nan nan nan nan nan nan nan
0.00 0.00 0.00 0.00 0.00 0.00 0.00 0.00 0.00 0.00 0.00 0.00 0.00 0.00 0.00 0.00 0.00 0.00 0.00 0.00 0.00 0.00 nan nan nan nan nan nan nan nan nan nan nan nan nan nan nan nan
0.00 0.00 0.00 nan nan nan 0.00 0.00 0.00 0.00 0.00 0.00 0.00 0.00 0.00 0.00 0.00 0.00 0.00 0.01 0.04 0.00 0.00 0.01 0.00 0.00 0.00 nan nan nan nan nan nan nan nan nan nan nan
0.01 0.00 0.00 0.00 0.00 nan nan nan nan 0.00 0.00 0.00 0.00 0.00 0.00 0.00 0.00 0.00 0.02 0.10 0.24 0.12 0.09 0.19 0.02 0.04 0.00 0.00 nan nan nan nan nan nan nan nan nan nan
0.02 0.01 0.00 0.00 nan 0.00 nan nan nan nan 0.00 0.00 0.00 0.00 0.00 0.00 0.00 0.01 0.02 0.00 0.01 0.06 0.11 0.32 0.28 0.22 0.08 0.00 nan nan nan nan nan nan nan nan nan nan
0.03 0.01 0.02 0.03 0.02 0.01 0.02 0.03 0.02 0.01 0.00 0.00 0.00 0.00 0.00 0.00 0.00 0.00 0.01 0.03 0.12 0.07 0.07 0.54 0.50 0.54 0.35 0.13 nan nan nan nan nan nan nan nan nan nan
0.03 0.04 0.03 0.04 nan nan 0.10 0.15 0.06 0.03 nan nan nan nan nan nan nan 0.12 0.34 0.28 0.92 0.41 0.29 0.23 0.52 0.55 0.46 0.63 0.60 nan nan nan nan nan nan nan nan nan
0.11 0.07 nan 0.04 nan nan 0.10 0.11 0.13 0.05 0.03 0.05 0.04 0.02 nan nan nan 0.00 0.04 0.25 0.35 0.36 0.28 0.33 0.13 0.22 0.56 0.69 0.49 0.64 0.57 nan nan nan nan nan nan 0.17
0.27 0.26 0.24 nan nan nan nan 0.10 0.07 0.03 0.02 0.07 0.07 0.14 0.11 0.06 0.13 0.10 0.04 0.10 0.20 0.15 0.07 0.04 0.16 0.18 0.16 0.41 0.53 0.46 0.37 0.74 0.69 0.54 nan nan nan 0.18
0.30 0.26 0.20 nan nan nan 0.32 nan nan 0.13 0.70 0.56 0.42 0.29 0.26 0.25 0.11 0.10 0.04 0.10 0.11 0.06 0.03 0.04 0.33 0.14 0.20 0.43 0.37 0.52 0.49 0.53 0.46 0.62 0.69 nan nan nan
0.46 0.36 nan nan nan 0.43 nan nan 0.22 0.60 0.69 0.77 0.48 0.26 0.19 0.16 0.07 0.12 0.16 0.19 0.20 0.32 0.16 0.13 0.20 0.12 0.23 0.32 0.39 0.55 0.64 0.61 0.47 0.74 0.68 0.32 0.26 0.14
0.22 0.42 0.20 0.42 0.27 0.28 0.47 0.62 0.72 0.68 0.58 0.50 0.36 0.22 0.21 0.30 0.31 0.22 0.32 0.34 0.36 0.41 0.61 0.28 0.13 0.12 0.40 0.26 0.17 0.50 0.47 0.74 0.51 0.61 0.68 0.66 0.32 0.23
0.58 1.02 0.60 0.44 0.43 0.40 0.52 0.48 0.45 0.48 0.60 0.61 0.52 0.41 0.37 0.31 0.37 0.41 0.31 0.30 0.41 0.42 0.28 0.30 0.25 0.25 0.18 0.18 0.56 0.25 0.37 0.34 0.37 0.61 0.62 0.48 0.33 0.30
0.47 0.70 1.35 1.50 0.86 0.43 0.66 0.62 0.56 0.50 0.45 0.53 0.79 0.54 0.47 0.56 0.59 0.71 0.58 0.47 0.55 0.42 0.31 0.22 0.22 0.20 0.15 0.40 0.21 0.23 0.20 0.26 0.30 0.41 0.42 0.52 0.22 0.22
0.73 0.71 1.44 1.71 1.07 0.43 0.47 0.45 0.60 0.57 0.26 0.51 0.66 0.76 0.81 0.63 0.71 0.78 0.85 0.71 0.60 0.36 0.24 0.43 0.41 0.35 0.36 0.74 0.33 nan 0.40 0.33 0.78 0.84 0.49 0.42 0.41 0.24
0.37 0.64 0.98 1.08 0.55 0.34 0.40 0.45 0.55 0.85 0.86 0.68 0.97 1.33 1.45 1.03 0.95 0.64 0.63 0.93 0.73 0.44 0.29 0.20 0.33 0.41 0.41 0.88 1.56 1.26 nan 1.09 0.93 0.95 0.52 0.43 0.22 nan
0.37 0.34 0.70 0.55 0.57 0.46 1.37 1.48 1.82 1.67 1.71 2.14 1.27 1.23 2.85 0.82 0.98 0.76 0.81 0.90 0.86 0.39 0.38 0.35 0.36 0.22 0.36 1.00 3.15 1.52 1.30 nan 0.89 0.78 0.60 0.51 0.21 0.12
0.76 0.45 0.51 0.56 0.84 0.75 1.66 2.56 2.36 2.34 1.68 1.26 2.25 3.31 3.08 1.39 1.15 0.98 1.25 1.11 0.57 0.64 0.40 0.31 0.21 0.16 0.67 0.45 0.53 2.13 0.86 0.82 nan nan nan nan 0.64 0.52
1.41 0.60 0.95 1.12 1.06 1.27 0.71 1.40 0.66 3.07 1.23 1.23 1.18 1.23 5.38 1.57 0.93 1.01 1.14 0.85 0.60 0.63 0.48 0.44 0.28 0.23 0.35 0.29 0.54 0.80 0.70 1.29 0.56 0.43 1.13 nan nan nan
SL_Ratio
nan nan nan nan nan nan nan nan nan nan nan nan nan nan nan nan nan nan nan nan nan nan nan nan nan nan nan nan nan nan nan nan nan nan nan nan nan nan
nan nan nan nan nan nan nan nan nan nan nan nan nan nan nan nan nan nan nan nan nan nan nan nan nan nan nan nan nan nan nan nan nan nan nan nan nan nan
nan nan nan nan nan nan nan nan nan nan nan nan nan nan nan nan nan nan nan nan nan nan nan nan nan nan nan nan nan nan nan nan nan nan nan nan nan nan
nan nan nan nan nan nan nan nan nan nan nan nan nan nan nan nan nan nan nan nan nan nan nan nan nan nan nan nan nan nan nan nan nan nan nan nan nan nan
nan nan nan nan nan nan nan nan nan nan nan nan nan nan nan nan nan nan nan nan nan nan nan nan nan nan nan nan nan nan nan nan nan nan nan nan nan nan
nan nan nan nan nan nan nan nan nan nan nan nan nan nan nan nan nan nan 5.0 nan nan nan nan nan nan nan nan nan nan nan nan nan nan nan nan nan nan nan
nan nan nan nan nan nan nan nan nan nan nan nan nan 3.3 nan nan 10.0 0.0 nan 3.3 3.7 3.8 4.3 4.0 4.3 nan nan nan nan nan nan nan nan nan nan nan nan nan
3.0 5.0 nan nan nan nan nan nan nan nan nan 6.7 5.6 8.0 nan nan nan nan 4.5 4.4 5.0 3.9 4.2 5.0 4.2 4.7 5.0 nan nan nan nan nan nan nan nan nan nan nan
3.5 3.0 2.9 nan nan 5.0 nan nan nan nan nan nan 10.0 nan nan nan nan 4.5 4.0 4.3 4.4 4.2 4.1 5.6 4.7 5.1 5.1 4.6 nan nan nan nan nan nan nan nan nan nan
3.6 3.3 3.7 3.7 3.3 3.4 3.7 4.1 4.1 3.9 nan nan nan nan nan nan nan 0.0 4.0 4.8 4.0 4.7 4.4 5.9 4.5 5.2 5.1 5.2 nan nan nan nan nan nan nan nan nan nan
3.9 3.8 3.9 4.4 nan nan 5.4 6.0 5.3 4.8 nan nan nan nan nan nan nan 4.1 4.5 5.0 7.0 4.9 4.8 5.1 5.3 5.0 4.3 3.6 2.8 nan nan nan nan nan nan nan nan nan
4.9 4.6 nan 4.4 nan nan 5.5 5.6 5.9 5.5 4.4 4.0 3.9 3.4 nan nan nan nan 4.0 5.2 6.0 7.6 5.6 6.9 6.4 7.1 7.4 5.5 4.4 3.7 3.1 nan nan nan nan nan nan 5.2
5.5 5.3 4.7 nan nan nan nan 5.6 5.8 4.8 5.2 5.1 5.1 4.9 4.6 4.6 4.1 3.8 3.3 4.1 5.2 6.0 4.9 5.8 7.2 7.0 7.5 8.6 5.7 5.3 4.9 4.5 3.7 3.5 nan nan nan 5.4
5.9 5.3 5.0 nan nan nan 4.5 nan nan 4.8 5.4 5.7 5.7 5.8 5.8 5.6 5.3 5.2 5.3 4.8 4.9 5.2 5.1 5.6 8.7 7.7 9.1 8.7 9.3 7.0 6.4 6.1 5.6 5.2 4.6 nan nan nan
5.7 5.4 nan nan nan 3.0 nan nan 3.0 6.0 5.9 6.2 6.2 6.2 6.0 6.0 6.4 6.8 6.7 6.3 5.8 6.5 5.6 5.9 6.4 6.9 6.9 9.2 9.5 9.0 8.8 7.2 6.6 7.2 7.2 7.0 7.2 7.6
4.0 6.0 3.0 5.1 3.0 4.2 5.2 5.9 5.9 6.0 6.1 6.2 6.6 6.5 6.4 6.4 6.7 6.5 7.2 8.5 8.8 8.7 6.6 6.0 6.0 6.2 7.8 8.1 8.5 9.6 8.5 9.5 7.8 7.8 8.3 7.7 7.8 7.6
5.7 6.9 6.6 6.7 6.9 6.8 6.7 6.5 6.4 6.4 6.6 6.6 6.4 6.6 6.6 6.9 6.9 6.6 7.2 8.6 9.7 9.1 8.4 7.0 6.5 6.5 6.5 8.8 9.5 8.5 9.0 8.8 8.3 9.0 9.0 8.8 8.1 8.0
6.9 7.5 8.1 8.0 7.8 7.2 7.1 6.9 6.8 6.2 6.6 6.5 6.5 6.5 6.7 6.6 7.5 7.8 7.7 9.0 9.7 9.4 9.1 8.8 8.1 8.2 7.3 8.1 6.7 8.8 8.4 8.5 8.7 9.4 8.6 9.2 8.6 7.6
7.2 7.7 9.4 9.1 8.1 7.4 7.5 7.2 7.4 6.5 6.9 6.5 6.5 6.8 6.9 7.4 7.6 8.0 8.1 8.5 9.6 9.6 9.1 8.5 8.6 8.2 9.8 9.8 8.8 nan 8.9 8.5 9.7 9.7 8.7 8.7 8.4 7.8
6.8 7.5 8.3 8.5 7.8 7.4 7.7 8.3 7.9 7.5 7.8 7.2 7.1 7.3 7.7 7.9 7.9 8.2 8.0 9.3 9.2 9.5 9.2 8.3 7.7 7.6 8.3 9.7 9.4 9.7 nan 9.5 9.6 9.7 9.7 8.3 8.1 nan
7.0 6.9 7.4 7.7 7.9 7.7 8.8 8.8 9.2 9.2 8.8 8.6 8.0 8.1 7.5 7.6 8.1 8.0 8.5 6.8 6.5 9.3 9.6 9.1 9.0 3.0 9.1 9.7 9.2 9.7 9.7 nan 8.3 8.7 8.6 9.3 8.7 8.1
7.5 7.2 7.1 7.2 8.2 8.6 9.3 9.0 9.1 9.1 9.2 9.0 9.1 8.5 8.3 8.9 9.4 9.5 9.5 9.6 9.5 9.5 9.9 9.9 9.2 8.5 8.8 9.7 9.9 9.5 9.8 9.8 nan nan nan nan 8.9 9.0
9.1 7.6 7.8 8.3 7.9 8.2 7.9 9.1 8.4 8.9 9.3 9.2 9.3 9.2 8.5 9.5 9.6 9.6 9.6 9.8 9.9 9.8 9.7 9.9 9.4 8.9 9.1 9.9 9.7 9.8 9.9 9.7 9.1 9.2 9.6 nan nan nan